�v������,���r���O(���x),�����t���O,���r���O(���x),�����t���O,��1(���x),�����t���O,�������x,�����t���O
12/1/2003 0:00,21.2,1,81.9,1,17.8,1,16.3,1
12/1/2003 0:15,22.3,1,78.8,1,17.9,1,16.4,1
12/1/2003 0:30,21.7,1,81,1,17.8,1,16.4,1
12/1/2003 0:45,21.6,1,81.4,1,17.8,1,16.5,1
12/1/2003 1:00,21.5,1,81.6,1,17.7,1,16.5,1
12/1/2003 1:15,21.4,1,80.9,1,17.7,1,16.2,1
12/1/2003 1:30,21.3,1,80.3,1,17.7,1,16.5,1
12/1/2003 1:45,21.2,1,80.1,1,17.7,1,16.2,1
12/1/2003 2:00,21.1,1,80,1,17.7,1,16.2,1
12/1/2003 2:15,21,1,79.9,1,17.7,1,16.3,1
12/1/2003 2:30,20.9,1,80.1,1,17.7,1,16.3,1
12/1/2003 2:45,20.8,1,79.9,1,17.8,1,16.4,1
12/1/2003 3:00,20.7,1,80,1,17.8,1,16.4,1
12/1/2003 3:15,20.7,1,79.8,1,17.8,1,16.5,1
12/1/2003 3:30,20.6,1,79.7,1,17.9,1,16.5,1
12/1/2003 3:45,20.5,1,79.7,1,17.9,1,16.6,1
12/1/2003 4:00,20.5,1,79.6,1,17.9,1,16.6,1
12/1/2003 4:15,20.4,1,79.6,1,17.8,1,16.7,1
12/1/2003 4:30,20.4,1,79.6,1,17.8,1,16.7,1
12/1/2003 4:45,20.4,1,79.5,1,17.8,1,16.8,1
12/1/2003 5:00,20.4,1,79.4,1,17.8,1,16.8,1
12/1/2003 5:15,20.3,1,79.3,1,17.8,1,16.9,1
12/1/2003 5:30,20.3,1,79.2,1,17.8,1,16.9,1
12/1/2003 5:45,20.3,1,79.2,1,17.8,1,16.9,1
12/1/2003 6:00,20.3,1,79,1,17.8,1,17,1
12/1/2003 6:15,20.3,1,79,1,17.7,1,17,1
12/1/2003 6:30,20.3,1,79.8,1,17.7,1,17.1,1
12/1/2003 6:45,22.6,1,75.6,1,17.7,1,16.5,1
12/1/2003 7:00,23.4,1,73.5,1,17.6,1,16.6,1
12/1/2003 7:15,22.8,1,74.8,1,17.6,1,16,1
12/1/2003 7:30,22.7,1,75.5,1,17.6,1,16.1,1
12/1/2003 7:45,22.7,1,75.2,1,17.5,1,15.7,1
12/1/2003 8:00,22.1,1,76.7,1,17.4,1,15.2,1
12/1/2003 8:15,21.8,1,77,1,17.4,1,15.3,1
12/1/2003 8:30,21.5,1,77.2,1,17.4,1,15.4,1
12/1/2003 8:45,21.3,1,77.5,1,17.2,1,15.5,1
12/1/2003 9:00,21.2,1,77.9,1,17,1,16,1
12/1/2003 9:15,21.1,1,77.8,1,16.9,1,15.2,1
12/1/2003 9:30,20.9,1,77.9,1,16.8,1,15.3,1
12/1/2003 9:45,20.9,1,78.5,1,16.7,1,15.4,1
12/1/2003 10:00,21.1,1,78.4,1,16.7,1,15.9,1
12/1/2003 10:15,21.2,1,77.8,1,16.7,1,15.9,1
12/1/2003 10:30,21.1,1,77.8,1,16.6,1,16,1
12/1/2003 10:45,23.8,1,70.8,1,16.7,1,16,1
12/1/2003 11:00,22.9,1,72.8,1,16.9,1,16.1,1
12/1/2003 11:15,21.8,1,75.4,1,16.9,1,16.1,1
12/1/2003 11:30,21.4,1,76.2,1,16.8,1,16.2,1
12/1/2003 11:45,21.1,1,76.4,1,16.9,1,16.2,1
12/1/2003 12:00,21,1,76.3,1,16.8,1,16.8,1
12/1/2003 12:15,20.9,1,76.5,1,16.8,1,17,1
12/1/2003 12:30,20.8,1,76.6,1,16.8,1,16.5,1
12/1/2003 12:45,20.8,1,76.6,1,16.7,1,16.5,1
12/1/2003 13:00,21,1,77.1,1,16.6,1,16.6,1
12/1/2003 13:15,21.2,1,77,1,16.5,1,16.6,1
12/1/2003 13:30,21.3,1,76.6,1,16.5,1,16.7,1
12/1/2003 13:45,21.4,1,75.3,1,16.5,1,16.7,1
12/1/2003 14:00,21.4,1,76,1,16.5,1,16.7,1
12/1/2003 14:15,21.1,1,75.5,1,16.6,1,16.7,1
12/1/2003 14:30,21.1,1,75.8,1,17,1,16.5,1
12/1/2003 14:45,21,1,74.9,1,17.2,1,16.4,1
12/1/2003 15:00,21,1,75.3,1,17.4,1,15.8,1
12/1/2003 15:15,21.7,1,72.6,1,17.4,1,16.1,1
12/1/2003 15:30,21.3,1,74.8,1,17.3,1,15.4,1
12/1/2003 15:45,21.2,1,74.9,1,17.1,1,15.5,1
12/1/2003 16:00,21.1,1,76,1,17.3,1,15.5,1
12/1/2003 16:15,23.8,1,69.2,1,17.4,1,15.6,1
12/1/2003 16:30,22.9,1,70.1,1,17.5,1,16.3,1
12/1/2003 16:45,22.6,1,70.8,1,17.5,1,16.5,1
12/1/2003 17:00,22.5,1,71.2,1,17.5,1,16,1
12/1/2003 17:15,22,1,73.1,1,17.4,1,16,1
12/1/2003 17:30,21.7,1,73.4,1,17.9,1,15.6,1
12/1/2003 17:45,21.5,1,74,1,18.2,1,14.9,1
12/1/2003 18:00,21.6,1,80.7,1,18.3,1,15,1
12/1/2003 18:15,21.9,1,84.4,1,18.2,1,15,1
12/1/2003 18:30,22.1,1,86.6,1,18.1,1,15.1,1
12/1/2003 18:45,21.7,1,81.7,1,17.7,1,15.2,1
12/1/2003 19:00,21.8,1,82.1,1,17.3,1,15.3,1
12/1/2003 19:15,21.7,1,81.2,1,16.9,1,15.3,1
12/1/2003 19:30,21.5,1,81.1,1,16.6,1,15.4,1
12/1/2003 19:45,21.4,1,80.6,1,16.4,1,15.5,1
12/1/2003 20:00,21.5,1,79.4,1,16.4,1,15.8,1
12/1/2003 20:15,21.6,1,79.2,1,16.3,1,15.9,1
12/1/2003 20:30,21.7,1,77.9,1,16.2,1,15.9,1
12/1/2003 20:45,21.7,1,76.9,1,16.2,1,16,1
12/1/2003 21:00,21.7,1,76.5,1,16.1,1,16.1,1
12/1/2003 21:15,23.3,1,72.3,1,16.1,1,16.1,1
12/1/2003 21:30,23.8,1,70.6,1,16,1,16.2,1
12/1/2003 21:45,23.5,1,71.6,1,16,1,16.2,1
12/1/2003 22:00,23.7,1,70.8,1,16,1,16.3,1
12/1/2003 22:15,23.8,1,69.3,1,15.9,1,16.3,1
12/1/2003 22:30,23.6,1,70.2,1,15.8,1,16.4,1
12/1/2003 22:45,23.4,1,72.1,1,15.7,1,16.4,1
12/1/2003 23:00,23.5,1,72.7,1,15.6,1,16.5,1
12/1/2003 23:15,23.6,1,73.1,1,15.6,1,16.5,1
12/1/2003 23:30,24.1,1,70,1,15.6,1,16.6,1
12/1/2003 23:45,24.2,1,70,1,15.6,1,16.7,1
12/2/2003 0:00,23.8,1,70.8,1,15.7,1,16.7,1
12/2/2003 0:15,23.2,1,73.1,1,15.7,1,16.8,1
12/2/2003 0:30,22.9,1,71.6,1,15.7,1,16.8,1
12/2/2003 0:45,22.7,1,72.7,1,15.6,1,16.9,1
12/2/2003 1:00,22.6,1,73.2,1,15.6,1,16.9,1
12/2/2003 1:15,22.5,1,73.8,1,15.6,1,17,1
12/2/2003 1:30,22.3,1,72.9,1,15.6,1,16,1
12/2/2003 1:45,22.2,1,72.6,1,15.7,1,15.9,1
12/2/2003 2:00,22.1,1,72.6,1,15.7,1,16,1
12/2/2003 2:15,22,1,71.6,1,15.6,1,16.1,1
12/2/2003 2:30,21.7,1,72.1,1,15.6,1,16.2,1
12/2/2003 2:45,21.5,1,72.2,1,15.6,1,16.2,1
12/2/2003 3:00,21.3,1,72,1,15.6,1,16.3,1
12/2/2003 3:15,21.2,1,72.1,1,15.6,1,16.3,1
12/2/2003 3:30,21.1,1,72.1,1,15.6,1,16.4,1
12/2/2003 3:45,21,1,72.1,1,15.7,1,16.4,1
12/2/2003 4:00,20.9,1,72.2,1,15.7,1,16.5,1
12/2/2003 4:15,20.8,1,72.3,1,15.7,1,16.5,1
12/2/2003 4:30,20.7,1,72.6,1,15.8,1,16.6,1
12/2/2003 4:45,20.6,1,72.8,1,15.9,1,16.6,1
12/2/2003 5:00,20.6,1,72.9,1,16,1,16.7,1
12/2/2003 5:15,20.5,1,73,1,16,1,16.7,1
12/2/2003 5:30,20.5,1,73.1,1,16,1,16.8,1
12/2/2003 5:45,20.4,1,73.2,1,16,1,16.8,1
12/2/2003 6:00,20.4,1,73.1,1,15.9,1,16.9,1
12/2/2003 6:15,20.4,1,73.1,1,15.9,1,16.9,1
12/2/2003 6:30,20.5,1,74.2,1,15.8,1,17,1
12/2/2003 6:45,20.4,1,74.4,1,15.8,1,17,1
12/2/2003 7:00,20.4,1,74.2,1,15.8,1,17.1,1
12/2/2003 7:15,20.5,1,74,1,15.8,1,14.7,1
12/2/2003 7:30,23,1,66.2,1,16,1,14.7,1
12/2/2003 7:45,22.8,1,65.8,1,16.2,1,14.6,1
12/2/2003 8:00,21.6,1,68.6,1,16.3,1,14.5,1
12/2/2003 8:15,21.5,1,67.8,1,16.3,1,14.6,1
12/2/2003 8:30,21.4,1,68.3,1,16.3,1,14.8,1
12/2/2003 8:45,21.3,1,69.5,1,16.4,1,14.6,1
12/2/2003 9:00,21.2,1,70.2,1,16.6,1,14.7,1
12/2/2003 9:15,21.2,1,69.1,1,16.7,1,15.1,1
12/2/2003 9:30,21.1,1,64,1,16.6,1,15.2,1
12/2/2003 9:45,21.1,1,64.3,1,16.6,1,15.2,1
12/2/2003 10:00,21.3,1,63,1,16.7,1,15.3,1
12/2/2003 10:15,21.3,1,60.6,1,16.7,1,15.8,1
12/2/2003 10:30,21.6,1,59.7,1,16.8,1,15,1
12/2/2003 10:45,21.1,1,52.5,1,16.8,1,15.2,1
12/2/2003 11:00,20.5,1,50.6,1,16.2,1,15,1
12/2/2003 11:15,22.1,1,48.1,1,16.1,1,15,1
12/2/2003 11:30,22.1,1,48.6,1,16.1,1,15.3,1
12/2/2003 11:45,22.5,1,47.5,1,16.1,1,15,1
12/2/2003 12:00,23,1,50.4,1,16.1,1,15.1,1
12/2/2003 12:15,23.2,1,51.9,1,16.2,1,15.1,1
12/2/2003 12:30,23.3,1,53.6,1,16.3,1,15.2,1
12/2/2003 12:45,23.4,1,54.4,1,16.5,1,15.2,1
12/2/2003 13:00,23.5,1,55.3,1,16.6,1,15.3,1
12/2/2003 13:15,23.7,1,55.9,1,16.7,1,15.3,1
12/2/2003 13:30,23.8,1,56.3,1,16.8,1,15.4,1
12/2/2003 13:45,23.8,1,56.6,1,16.9,1,15.4,1
12/2/2003 14:00,23.9,1,57.5,1,17,1,16.7,1
12/2/2003 14:15,23.9,1,55.1,1,17.1,1,15.9,1
12/2/2003 14:30,24.1,1,57.3,1,17.1,1,16.2,1
12/2/2003 14:45,23.9,1,56.7,1,17.2,1,15.7,1
12/2/2003 15:00,23.9,1,56.4,1,17.2,1,15.8,1
12/2/2003 15:15,23.7,1,53,1,17.2,1,16.1,1
12/2/2003 15:30,23.8,1,55.3,1,17.4,1,15.9,1
12/2/2003 15:45,23.6,1,55.4,1,17.6,1,15.9,1
12/2/2003 16:00,23.5,1,57.8,1,17.6,1,16,1
12/2/2003 16:15,23.3,1,59,1,17.4,1,16,1
12/2/2003 16:30,23,1,60.3,1,17.2,1,16.1,1
12/2/2003 16:45,22.7,1,60.8,1,17,1,16.1,1
12/2/2003 17:00,22.4,1,60.4,1,16.6,1,16.3,1
12/2/2003 17:15,22.2,1,58.4,1,16.4,1,16.3,1
12/2/2003 17:30,22.2,1,60.7,1,16.3,1,16.4,1
12/2/2003 17:45,22.3,1,62.8,1,16.4,1,16.4,1
12/2/2003 18:00,22.4,1,65.4,1,16.4,1,15.6,1
12/2/2003 18:15,22.4,1,68.3,1,16.4,1,15.7,1
12/2/2003 18:30,22.6,1,73.3,1,16.4,1,15.4,1
12/2/2003 18:45,23,1,72.2,1,16.3,1,15,1
12/2/2003 19:00,23.1,1,70.2,1,16.2,1,15.1,1
12/2/2003 19:15,22.9,1,67.3,1,16.2,1,15.9,1
12/2/2003 19:30,22.8,1,67.7,1,16.2,1,15.2,1
12/2/2003 19:45,22.8,1,69.2,1,16.2,1,15.3,1
12/2/2003 20:00,22.8,1,69.2,1,16.3,1,14.8,1
12/2/2003 20:15,22.7,1,70.5,1,16.3,1,14.9,1
12/2/2003 20:30,22.4,1,69.5,1,16.4,1,14.9,1
12/2/2003 20:45,22.4,1,70.8,1,16.7,1,14.9,1
12/2/2003 21:00,22.5,1,72.1,1,16.9,1,15,1
12/2/2003 21:15,22.5,1,73,1,17,1,15.1,1
12/2/2003 21:30,22.5,1,73,1,17.2,1,15.2,1
12/2/2003 21:45,22.5,1,73.2,1,17.2,1,15.2,1
12/2/2003 22:00,22.5,1,73.3,1,17.3,1,15.3,1
12/2/2003 22:15,22.5,1,73.3,1,17.3,1,15.4,1
12/2/2003 22:30,22.1,1,72.1,1,17.2,1,16.3,1
12/2/2003 22:45,21.8,1,71.9,1,17,1,16.4,1
12/2/2003 23:00,21.7,1,72,1,17,1,16.4,1
12/2/2003 23:15,21.5,1,72.2,1,16.9,1,16.4,1
12/2/2003 23:30,21.4,1,72.3,1,16.9,1,16.5,1
12/2/2003 23:45,21.3,1,72.6,1,16.9,1,16.5,1
12/3/2003 0:00,21.2,1,73,1,16.9,1,16.6,1
12/3/2003 0:15,21.1,1,73.1,1,16.9,1,16.6,1
12/3/2003 0:30,21,1,73.3,1,16.9,1,16.7,1
12/3/2003 0:45,21,1,73.4,1,17,1,16.7,1
12/3/2003 1:00,20.9,1,73.7,1,16.9,1,16.7,1
12/3/2003 1:15,20.8,1,73.8,1,16.9,1,16.8,1
12/3/2003 1:30,20.8,1,73.9,1,16.9,1,16.8,1
12/3/2003 1:45,20.7,1,74,1,16.8,1,16.9,1
12/3/2003 2:00,20.7,1,73.7,1,16.7,1,16.9,1
12/3/2003 2:15,20.6,1,73.6,1,16.6,1,17,1
12/3/2003 2:30,20.6,1,73.6,1,16.7,1,17,1
12/3/2003 2:45,20.5,1,73.8,1,16.7,1,17,1
12/3/2003 3:00,20.5,1,73.7,1,16.7,1,17.1,1
12/3/2003 3:15,20.5,1,73.9,1,16.7,1,17.1,1
12/3/2003 3:30,20.4,1,73.8,1,16.7,1,17.2,1
12/3/2003 3:45,20.4,1,73.8,1,16.7,1,17.2,1
12/3/2003 4:00,20.4,1,73.8,1,16.7,1,17.3,1
12/3/2003 4:15,20.4,1,73.7,1,16.7,1,17.3,1
12/3/2003 4:30,20.3,1,73.8,1,16.6,1,17.3,1
12/3/2003 4:45,20.3,1,73.8,1,16.6,1,17.4,1
12/3/2003 5:00,20.3,1,73.6,1,16.5,1,17.4,1
12/3/2003 5:15,20.3,1,73.5,1,16.4,1,17.5,1
12/3/2003 5:30,20.2,1,73.3,1,16.4,1,17.5,1
12/3/2003 5:45,20.2,1,73.3,1,16.3,1,17.5,1
12/3/2003 6:00,20.2,1,73.3,1,16.3,1,17.6,1
12/3/2003 6:15,20.2,1,73.4,1,16.3,1,17.6,1
12/3/2003 6:30,20.2,1,73.4,1,16.4,1,17.6,1
12/3/2003 6:45,20.1,1,73.5,1,16.4,1,17.7,1
12/3/2003 7:00,23.1,1,67.2,1,16.5,1,15.9,1
12/3/2003 7:15,24.1,1,66.4,1,16.5,1,16,1
12/3/2003 7:30,23.1,1,68.3,1,16.4,1,15.6,1
12/3/2003 7:45,22.2,1,69.7,1,16.3,1,14.8,1
12/3/2003 8:00,22,1,75.6,1,16.1,1,14.8,1
12/3/2003 8:15,21.9,1,73.4,1,16,1,14.8,1
12/3/2003 8:30,21.7,1,73.6,1,15.9,1,14.9,1
12/3/2003 8:45,21.3,1,69.7,1,16,1,15.4,1
12/3/2003 9:00,21.2,1,70.8,1,16.1,1,15.5,1
12/3/2003 9:15,21.1,1,70.1,1,16.2,1,15.1,1
12/3/2003 9:30,21,1,69.3,1,16.3,1,15.2,1
12/3/2003 9:45,21,1,69.5,1,16.6,1,15.6,1
12/3/2003 10:00,20.9,1,69.8,1,16.9,1,15.6,1
12/3/2003 10:15,20.8,1,70.3,1,17.2,1,15.6,1
12/3/2003 10:30,20.7,1,70.5,1,17.4,1,15.7,1
12/3/2003 10:45,20.7,1,70.8,1,17.5,1,15.7,1
12/3/2003 11:00,20.6,1,71.1,1,17.6,1,15.7,1
12/3/2003 11:15,20.6,1,71.1,1,17.7,1,15.8,1
12/3/2003 11:30,20.5,1,71.2,1,17.8,1,15.8,1
12/3/2003 11:45,20.8,1,71,1,17.8,1,15.9,1
12/3/2003 12:00,20.6,1,71.5,1,17.8,1,15.9,1
12/3/2003 12:15,20.5,1,71.4,1,17.7,1,16,1
12/3/2003 12:30,20.4,1,71.5,1,17.7,1,16,1
12/3/2003 12:45,20.4,1,71.6,1,17.6,1,16.1,1
12/3/2003 13:00,20.4,1,71.4,1,17.5,1,16.1,1
12/3/2003 13:15,20.5,1,72.2,1,17.5,1,16.9,1
12/3/2003 13:30,20.5,1,71.7,1,17.4,1,16.9,1
12/3/2003 13:45,20.5,1,71.7,1,17.4,1,16.9,1
12/3/2003 14:00,20.5,1,71.6,1,17.3,1,16.9,1
12/3/2003 14:15,20.4,1,71.3,1,17.3,1,16.9,1
12/3/2003 14:30,20.3,1,71.4,1,17.2,1,17,1
12/3/2003 14:45,20.3,1,71.5,1,17.2,1,17,1
12/3/2003 15:00,20.3,1,71.2,1,17.2,1,16.8,1
12/3/2003 15:15,20.4,1,71.2,1,17.2,1,16.5,1
12/3/2003 15:30,20.5,1,71,1,17.2,1,16.6,1
12/3/2003 15:45,21,1,70.3,1,17.3,1,16.2,1
12/3/2003 16:00,20.8,1,69.1,1,17.3,1,16.3,1
12/3/2003 16:15,20.8,1,69.7,1,17.2,1,16.3,1
12/3/2003 16:30,20.9,1,69.6,1,17,1,15.5,1
12/3/2003 16:45,20.7,1,69.3,1,16.8,1,15.5,1
12/3/2003 17:00,20.7,1,70,1,16.7,1,15.6,1
12/3/2003 17:15,20.6,1,70.1,1,16.6,1,15.7,1
12/3/2003 17:30,20.6,1,71.3,1,16.8,1,15.8,1
12/3/2003 17:45,20.5,1,71.4,1,16.9,1,15,1
12/3/2003 18:00,20.9,1,79.3,1,16.8,1,15.1,1
12/3/2003 18:15,20.9,1,79,1,16.7,1,15.2,1
12/3/2003 18:30,21.1,1,81.3,1,16.5,1,15.2,1
12/3/2003 18:45,21.1,1,80.4,1,16.3,1,15.3,1
12/3/2003 19:00,21,1,76.5,1,15.8,1,15.4,1
12/3/2003 19:15,21.2,1,77.6,1,15.8,1,15.7,1
12/3/2003 19:30,21.2,1,76.9,1,15.9,1,15.1,1
12/3/2003 19:45,21.2,1,76.9,1,16.1,1,15,1
12/3/2003 20:00,21.2,1,77,1,16.1,1,15,1
12/3/2003 20:15,23.6,1,71.1,1,16.3,1,15.5,1
12/3/2003 20:30,23.4,1,71.8,1,16.4,1,15.5,1
12/3/2003 20:45,22.6,1,73.5,1,16.4,1,15.6,1
12/3/2003 21:00,22.3,1,73.6,1,16.4,1,15.7,1
12/3/2003 21:15,22.3,1,73.5,1,16.4,1,15.7,1
12/3/2003 21:30,22.4,1,73.1,1,16.3,1,16.1,1
12/3/2003 21:45,22.4,1,72.9,1,16.3,1,16.2,1
12/3/2003 22:00,22.3,1,73,1,16.3,1,16.2,1
12/3/2003 22:15,22.3,1,72.8,1,16.3,1,16.3,1
12/3/2003 22:30,24.8,1,65.7,1,16.2,1,15.4,1
12/3/2003 22:45,24.4,1,67.1,1,16.2,1,15.5,1
12/3/2003 23:00,23.8,1,69.1,1,16.1,1,15.5,1
12/3/2003 23:15,23.2,1,70.6,1,16.1,1,16,1
12/3/2003 23:30,22.9,1,71.4,1,16.1,1,16.1,1
12/3/2003 23:45,22.7,1,71.3,1,16.2,1,16.2,1
12/4/2003 0:00,22.5,1,71.4,1,16.2,1,16,1
12/4/2003 0:15,22.4,1,71.5,1,16.2,1,16.1,1
12/4/2003 0:30,22.3,1,71.3,1,16.2,1,15.8,1
12/4/2003 0:45,22.1,1,71,1,16.2,1,15.3,1
12/4/2003 1:00,22.1,1,71.1,1,16.1,1,15.4,1
12/4/2003 1:15,21.9,1,71.3,1,16,1,15.5,1
12/4/2003 1:30,21.9,1,71.2,1,15.9,1,15.6,1
12/4/2003 1:45,21.8,1,71.2,1,15.8,1,15.6,1
12/4/2003 2:00,21.7,1,71.3,1,15.8,1,15.7,1
12/4/2003 2:15,21.7,1,71.3,1,15.7,1,15.8,1
12/4/2003 2:30,21.4,1,71.3,1,15.7,1,16.4,1
12/4/2003 2:45,21.2,1,71.9,1,15.8,1,16.5,1
12/4/2003 3:00,21,1,72.3,1,15.7,1,16.5,1
12/4/2003 3:15,20.8,1,72.7,1,15.7,1,16.5,1
12/4/2003 3:30,20.7,1,72.8,1,15.6,1,16.6,1
12/4/2003 3:45,20.6,1,72.9,1,15.6,1,16.6,1
12/4/2003 4:00,20.5,1,72.9,1,15.5,1,16.7,1
12/4/2003 4:15,20.4,1,73.1,1,15.5,1,16.7,1
12/4/2003 4:30,20.3,1,73.1,1,15.4,1,16.7,1
12/4/2003 4:45,20.2,1,73.2,1,15.3,1,16.8,1
12/4/2003 5:00,20.2,1,73.3,1,15.1,1,16.8,1
12/4/2003 5:15,20.1,1,73.3,1,15.1,1,16.9,1
12/4/2003 5:30,20,1,73.2,1,15.2,1,16.9,1
12/4/2003 5:45,20,1,73.2,1,15.2,1,17,1
12/4/2003 6:00,20,1,73.2,1,15.2,1,17,1
12/4/2003 6:15,19.9,1,73.2,1,15.2,1,17,1
12/4/2003 6:30,19.9,1,73.1,1,15.2,1,17.1,1
12/4/2003 6:45,22.5,1,67.5,1,15.2,1,16.9,1
12/4/2003 7:00,24,1,65.4,1,15.1,1,16.9,1
12/4/2003 7:15,23.8,1,64.5,1,15.1,1,17,1
12/4/2003 7:30,21.8,1,66.6,1,15,1,16,1
12/4/2003 7:45,21.3,1,67.5,1,15,1,16,1
12/4/2003 8:00,20.9,1,65.4,1,15.1,1,16.1,1
12/4/2003 8:15,20.8,1,66.4,1,15.2,1,16.1,1
12/4/2003 8:30,20.8,1,66.1,1,15.2,1,15.4,1
12/4/2003 8:45,20.6,1,63,1,15.2,1,14.6,1
12/4/2003 9:00,20.6,1,60.1,1,15.3,1,14.7,1
12/4/2003 9:15,20.6,1,58.5,1,15.5,1,15.1,1
12/4/2003 9:30,20.7,1,57.6,1,15.1,1,15.1,1
12/4/2003 9:45,20.7,1,55.1,1,15,1,15.2,1
12/4/2003 10:00,20.7,1,54.3,1,15.3,1,15.2,1
12/4/2003 10:15,20.9,1,50.8,1,15.4,1,15.3,1
12/4/2003 10:30,21,1,50,1,15.6,1,15.3,1
12/4/2003 10:45,21.1,1,48.3,1,15.8,1,15.4,1
12/4/2003 11:00,21.4,1,48.3,1,15.9,1,15.4,1
12/4/2003 11:15,21.6,1,45.9,1,16,1,15.5,1
12/4/2003 11:30,21.7,1,45.5,1,16.1,1,15.5,1
12/4/2003 11:45,22.1,1,45.2,1,16.2,1,15.6,1
12/4/2003 12:00,22.2,1,44.5,1,16.3,1,15.6,1
12/4/2003 12:15,22.2,1,43.8,1,16.3,1,15.7,1
12/4/2003 12:30,21.6,1,44.5,1,16.3,1,15.7,1
12/4/2003 12:45,21.5,1,44.5,1,16.3,1,15.7,1
12/4/2003 13:00,21.2,1,44.8,1,16.2,1,15.8,1
12/4/2003 13:15,20.9,1,44.8,1,16.1,1,15.8,1
12/4/2003 13:30,20.7,1,44.1,1,16.1,1,15.9,1
12/4/2003 13:45,20.6,1,44.3,1,16.2,1,15.9,1
12/4/2003 14:00,20.7,1,44.8,1,16.3,1,16,1
12/4/2003 14:15,21.3,1,44.2,1,16.6,1,16.7,1
12/4/2003 14:30,21.6,1,46.5,1,16.8,1,16.7,1
12/4/2003 14:45,21.8,1,48.1,1,16.9,1,16.7,1
12/4/2003 15:00,21.7,1,49.5,1,16.9,1,16.4,1
12/4/2003 15:15,22,1,51.6,1,16.9,1,16.5,1
12/4/2003 15:30,21.9,1,51.6,1,16.9,1,16.3,1
12/4/2003 15:45,22,1,50.6,1,16.9,1,16.4,1
12/4/2003 16:00,21.9,1,53.9,1,16.9,1,16.4,1
12/4/2003 16:15,21.8,1,56,1,16.7,1,16.4,1
12/4/2003 16:30,21.6,1,57.7,1,16.5,1,16.5,1
12/4/2003 16:45,21.5,1,59.2,1,16.3,1,16.4,1
12/4/2003 17:00,21.5,1,60.4,1,16.1,1,15.7,1
12/4/2003 17:15,21.4,1,61.1,1,16,1,15.8,1
12/4/2003 17:30,21.2,1,60.8,1,16,1,15.8,1
12/4/2003 17:45,21.2,1,63.1,1,16.2,1,15.7,1
12/4/2003 18:00,21.1,1,63.8,1,16.1,1,15.7,1
12/4/2003 18:15,21.4,1,71,1,16,1,15.7,1
12/4/2003 18:30,21.4,1,70.4,1,15.8,1,15.8,1
12/4/2003 18:45,21.2,1,66.1,1,15,1,15.8,1
12/4/2003 19:00,21.3,1,66.4,1,14.7,1,15.9,1
12/4/2003 19:15,21.3,1,65.3,1,14.8,1,15.2,1
12/4/2003 19:30,21.3,1,65.3,1,14.8,1,15.1,1
12/4/2003 19:45,21.3,1,65.1,1,14.9,1,15.2,1
12/4/2003 20:00,21.3,1,65.9,1,14.9,1,15.3,1
12/4/2003 20:15,23,1,63.9,1,14.9,1,15.3,1
12/4/2003 20:30,22.5,1,64.3,1,14.9,1,15.7,1
12/4/2003 20:45,22,1,65.4,1,14.9,1,15.8,1
12/4/2003 21:00,21.9,1,65.3,1,14.8,1,15.8,1
12/4/2003 21:15,21.9,1,64.9,1,14.8,1,15.9,1
12/4/2003 21:30,21.8,1,64.7,1,14.7,1,15.9,1
12/4/2003 21:45,21.7,1,64.4,1,14.7,1,16,1
12/4/2003 22:00,21.7,1,64.1,1,14.6,1,16,1
12/4/2003 22:15,21.7,1,63.1,1,14.5,1,16.1,1
12/4/2003 22:30,21.7,1,62.5,1,14.6,1,16.7,1
12/4/2003 22:45,21.6,1,62.2,1,14.5,1,16.4,1
12/4/2003 23:00,21.7,1,62.8,1,14.5,1,16.5,1
12/4/2003 23:15,21.7,1,63.1,1,14.5,1,16.5,1
12/4/2003 23:30,21.7,1,62.8,1,14.6,1,16.6,1
12/4/2003 23:45,21.7,1,63.3,1,14.7,1,16.6,1
12/5/2003 0:00,21.7,1,63.7,1,14.7,1,16.6,1
12/5/2003 0:15,21.7,1,64,1,14.8,1,16.7,1
12/5/2003 0:30,21.7,1,64,1,14.8,1,16.7,1
12/5/2003 0:45,21.7,1,64.1,1,14.8,1,16.8,1
12/5/2003 1:00,21.6,1,64.2,1,14.8,1,16.6,1
12/5/2003 1:15,21.5,1,64.4,1,14.8,1,16.7,1
12/5/2003 1:30,21.2,1,64.7,1,14.8,1,16.7,1
12/5/2003 1:45,21,1,64.9,1,14.8,1,16.7,1
12/5/2003 2:00,20.8,1,64.8,1,14.8,1,16.8,1
12/5/2003 2:15,20.7,1,65,1,14.8,1,16.9,1
12/5/2003 2:30,20.6,1,65.1,1,14.8,1,16.9,1
12/5/2003 2:45,20.5,1,65.1,1,14.8,1,16.9,1
12/5/2003 3:00,20.4,1,65.3,1,14.8,1,17,1
12/5/2003 3:15,20.4,1,65.5,1,14.9,1,17,1
12/5/2003 3:30,20.3,1,65.6,1,15,1,17,1
12/5/2003 3:45,20.2,1,65.8,1,15,1,17.1,1
12/5/2003 4:00,20.2,1,65.9,1,15.1,1,17.1,1
12/5/2003 4:15,20.1,1,66.1,1,15.1,1,17.2,1
12/5/2003 4:30,20.1,1,66.2,1,15.1,1,17.2,1
12/5/2003 4:45,20.1,1,66.4,1,15.1,1,17.3,1
12/5/2003 5:00,20,1,66.7,1,15.1,1,17.3,1
12/5/2003 5:15,20,1,66.7,1,15.1,1,17.3,1
12/5/2003 5:30,20,1,66.8,1,15.1,1,17.4,1
12/5/2003 5:45,19.9,1,66.9,1,15,1,17.4,1
12/5/2003 6:00,19.9,1,67,1,15,1,16.8,1
12/5/2003 6:15,19.9,1,67.1,1,14.9,1,16.9,1
12/5/2003 6:30,19.9,1,67.6,1,14.8,1,17,1
12/5/2003 6:45,19.9,1,67.7,1,14.7,1,17,1
12/5/2003 7:00,19.8,1,67.7,1,14.7,1,17.1,1
12/5/2003 7:15,20.5,1,67.6,1,14.8,1,17.1,1
12/5/2003 7:30,23.4,1,59.9,1,14.8,1,15.9,1
12/5/2003 7:45,21.8,1,63.4,1,14.8,1,14.6,1
12/5/2003 8:00,21.2,1,65.1,1,14.9,1,14.7,1
12/5/2003 8:15,21,1,67.2,1,15,1,14.8,1
12/5/2003 8:30,20.7,1,67.2,1,15,1,14.9,1
12/5/2003 8:45,20.5,1,66.9,1,14.9,1,14.9,1
12/5/2003 9:00,20.4,1,66.2,1,14.8,1,15.3,1
12/5/2003 9:15,20.2,1,65.5,1,14.7,1,14.9,1
12/5/2003 9:30,20,1,65.4,1,14.8,1,15,1
12/5/2003 9:45,19.9,1,65.9,1,14.8,1,15,1
12/5/2003 10:00,19.8,1,66.1,1,14.9,1,15.1,1
12/5/2003 10:15,19.7,1,66.3,1,14.9,1,15.1,1
12/5/2003 10:30,19.7,1,66.5,1,15,1,15.2,1
12/5/2003 10:45,19.6,1,66.7,1,14.9,1,15.3,1
12/5/2003 11:00,19.5,1,66.8,1,14.9,1,15.3,1
12/5/2003 11:15,19.4,1,66.9,1,14.9,1,15.4,1
12/5/2003 11:30,19.4,1,67,1,14.9,1,15.4,1
12/5/2003 11:45,19.4,1,67.1,1,14.9,1,15.5,1
12/5/2003 12:00,19.3,1,67.1,1,14.9,1,15.5,1
12/5/2003 12:15,19.3,1,67.2,1,14.9,1,15.6,1
12/5/2003 12:30,19.2,1,67.3,1,14.9,1,15.6,1
12/5/2003 12:45,19.2,1,67.4,1,14.9,1,15.7,1
12/5/2003 13:00,19.2,1,67.5,1,14.9,1,15.7,1
12/5/2003 13:15,19.3,1,67.8,1,15,1,16.2,1
12/5/2003 13:30,19.4,1,67.6,1,15,1,16.2,1
12/5/2003 13:45,19.4,1,67.6,1,15,1,16.3,1
12/5/2003 14:00,19.4,1,67.6,1,15.1,1,16.3,1
12/5/2003 14:15,19.3,1,67.6,1,15.1,1,16.1,1
12/5/2003 14:30,19.2,1,67.7,1,15.1,1,16.1,1
12/5/2003 14:45,19.2,1,68.1,1,15,1,15.8,1
12/5/2003 15:00,19.3,1,68.1,1,15,1,15.5,1
12/5/2003 15:15,19.3,1,68.4,1,15,1,15.6,1
12/5/2003 15:30,19.4,1,68.1,1,15,1,15.7,1
12/5/2003 15:45,19.6,1,67.8,1,15.1,1,15.7,1
12/5/2003 16:00,19.6,1,68.3,1,15,1,15.8,1
12/5/2003 16:15,19.7,1,68.7,1,14.8,1,15.8,1
12/5/2003 16:30,19.6,1,68.3,1,14.7,1,15.8,1
12/5/2003 16:45,19.6,1,68.2,1,14.5,1,16.1,1
12/5/2003 17:00,19.6,1,67.8,1,14.4,1,16.2,1
12/5/2003 17:15,20.5,1,63.5,1,14.6,1,15.8,1
12/5/2003 17:30,20,1,66.8,1,14.9,1,16,1
12/5/2003 17:45,19.8,1,67.2,1,14.8,1,15,1
12/5/2003 18:00,19.9,1,74.6,1,14.6,1,15.1,1
12/5/2003 18:15,19.9,1,73.7,1,14.4,1,15.1,1
12/5/2003 18:30,19.9,1,73.3,1,14.3,1,15.2,1
12/5/2003 18:45,20.2,1,74.5,1,14.2,1,15.3,1
12/5/2003 19:00,20.4,1,75.6,1,14.1,1,15.3,1
12/5/2003 19:15,20.7,1,83,1,14,1,15.4,1
12/5/2003 19:30,20.9,1,85.3,1,13.9,1,15.3,1
12/5/2003 19:45,20.6,1,82,1,13.8,1,15.8,1
12/5/2003 20:00,20.4,1,77.9,1,13.7,1,14.8,1
12/5/2003 20:15,20.1,1,74.4,1,13.9,1,14.3,1
12/5/2003 20:30,20.1,1,71.5,1,13.9,1,14.7,1
12/5/2003 20:45,20.5,1,72.5,1,13.8,1,14.6,1
12/5/2003 21:00,20.5,1,71.4,1,13.7,1,15,1
12/5/2003 21:15,20.7,1,70.8,1,13.7,1,15,1
12/5/2003 21:30,23.1,1,65.4,1,13.8,1,15.1,1
12/5/2003 21:45,23.7,1,64.5,1,14,1,15.1,1
12/5/2003 22:00,22.8,1,67.1,1,14,1,15.2,1
12/5/2003 22:15,23.4,1,65.6,1,14,1,15.2,1
12/5/2003 22:30,25.8,1,60.1,1,14,1,15.3,1
12/5/2003 22:45,24.8,1,62.7,1,14,1,15.3,1
12/5/2003 23:00,23.8,1,64.9,1,13.9,1,15.4,1
12/5/2003 23:15,23.7,1,63.9,1,13.9,1,15.7,1
12/5/2003 23:30,24,1,65.1,1,13.9,1,15.7,1
12/5/2003 23:45,24.1,1,64.2,1,13.9,1,15.8,1
12/6/2003 0:00,24,1,65,1,13.8,1,15.8,1
12/6/2003 0:15,26.1,1,60.1,1,13.8,1,15.9,1
12/6/2003 0:30,23.8,1,64.2,1,13.9,1,15.6,1
12/6/2003 0:45,23,1,66,1,14.1,1,15.7,1
12/6/2003 1:00,22.6,1,66.2,1,14.1,1,15.7,1
12/6/2003 1:15,22.4,1,66.4,1,14.2,1,15.8,1
12/6/2003 1:30,22.2,1,66.5,1,14.2,1,15.8,1
12/6/2003 1:45,21.8,1,66.7,1,14.2,1,15.9,1
12/6/2003 2:00,21.4,1,66.8,1,14.2,1,15.9,1
12/6/2003 2:15,21,1,67.1,1,14.2,1,16,1
12/6/2003 2:30,20.8,1,67.1,1,14.2,1,16.1,1
12/6/2003 2:45,20.6,1,67.1,1,14.3,1,16.1,1
12/6/2003 3:00,20.4,1,67.2,1,14.3,1,16.1,1
12/6/2003 3:15,20.3,1,67.5,1,14.3,1,16.2,1
12/6/2003 3:30,20.1,1,67.7,1,14.3,1,16.2,1
12/6/2003 3:45,20,1,67.9,1,14.3,1,16.3,1
12/6/2003 4:00,19.9,1,68,1,14.3,1,16.3,1
12/6/2003 4:15,19.8,1,68.2,1,14.4,1,16.4,1
12/6/2003 4:30,19.8,1,68.3,1,14.3,1,16.4,1
12/6/2003 4:45,19.7,1,68.4,1,14.3,1,16.5,1
12/6/2003 5:00,19.6,1,68.5,1,14.3,1,16.5,1
12/6/2003 5:15,19.6,1,68.5,1,14.4,1,16.6,1
12/6/2003 5:30,19.5,1,68.5,1,14.4,1,16.6,1
12/6/2003 5:45,19.5,1,68.6,1,14.5,1,16.6,1
12/6/2003 6:00,19.5,1,68.7,1,14.5,1,16.7,1
12/6/2003 6:15,19.4,1,68.8,1,14.5,1,16.7,1
12/6/2003 6:30,19.4,1,68.7,1,14.6,1,16.7,1
12/6/2003 6:45,19.3,1,68.7,1,14.6,1,16.8,1
12/6/2003 7:00,19.3,1,68.8,1,14.5,1,16.8,1
12/6/2003 7:15,19.3,1,68.8,1,14.5,1,16.1,1
12/6/2003 7:30,19.8,1,68.8,1,14.5,1,15.3,1
12/6/2003 7:45,23.5,1,61.8,1,14.5,1,14.7,1
12/6/2003 8:00,23.2,1,64.5,1,14.3,1,14.8,1
12/6/2003 8:15,23.4,1,64.8,1,14.2,1,14.9,1
12/6/2003 8:30,22.3,1,61.7,1,14.4,1,15.1,1
12/6/2003 8:45,22.8,1,59.8,1,14.3,1,15.2,1
12/6/2003 9:00,21.7,1,66,1,13.9,1,14.8,1
12/6/2003 9:15,21.2,1,67.4,1,13.8,1,14.4,1
12/6/2003 9:30,21.1,1,67.9,1,13.9,1,14.4,1
12/6/2003 9:45,22.8,1,64.5,1,14.2,1,14.5,1
12/6/2003 10:00,23.2,1,65.4,1,14.4,1,14.8,1
12/6/2003 10:15,22.9,1,66.9,1,14.5,1,14.8,1
12/6/2003 10:30,22.8,1,66.5,1,14.6,1,14.9,1
12/6/2003 10:45,22.8,1,67.9,1,14.8,1,14.9,1
12/6/2003 11:00,24.2,1,63.7,1,14.9,1,15,1
12/6/2003 11:15,23.2,1,66.7,1,15,1,15,1
12/6/2003 11:30,22.4,1,65,1,15.1,1,15.1,1
12/6/2003 11:45,22,1,64.7,1,15.2,1,14.7,1
12/6/2003 12:00,21.6,1,64.4,1,15.6,1,14.8,1
12/6/2003 12:15,21.6,1,65.3,1,15.9,1,14.8,1
12/6/2003 12:30,21.6,1,63.5,1,16,1,14.9,1
12/6/2003 12:45,21.4,1,64.9,1,15.9,1,14.9,1
12/6/2003 13:00,24,1,59.7,1,15.8,1,15,1
12/6/2003 13:15,23.2,1,62.6,1,15.6,1,15,1
12/6/2003 13:30,23.4,1,63.2,1,15.4,1,15.1,1
12/6/2003 13:45,23.6,1,63.4,1,15.3,1,15.1,1
12/6/2003 14:00,22.7,1,63.8,1,15.3,1,15.7,1
12/6/2003 14:15,22.1,1,65,1,15.5,1,15.7,1
12/6/2003 14:30,21.6,1,65.2,1,15.6,1,15.7,1
12/6/2003 14:45,21.4,1,66,1,15.9,1,15.7,1
12/6/2003 15:00,21.5,1,65.9,1,16.3,1,15.8,1
12/6/2003 15:15,22.4,1,68.7,1,16.4,1,15.8,1
12/6/2003 15:30,22.1,1,67.5,1,16.3,1,15.2,1
12/6/2003 15:45,21.9,1,68.5,1,16.3,1,15.3,1
12/6/2003 16:00,21.6,1,67.1,1,16.2,1,15.5,1